Location: Prairie Dale
(45.6972°N, 104.5033°W)
Time: 03:28:12
(UTC+00:00)

AO-109 - Pass Details

Date: 07 July 2022
Orbit: 469 x 506 km, 60.7° (Epoch: 14 August)

Event Time Altitude Azimuth Distance (km) Brightness Sun altitude
Exits shadow 09:39:47 21° 239° (WSW) 1,140 ? -13.0°
Maximum altitude 09:42:08 62° 316° (NW) 546 ? -12.8°
Drops below altitude 10° 09:45:52 10° 38° (NE) 1,677 ? -12.4°
Sets 09:48:04 0° 42° (NE) 2,569 ? -12.1°
